Tracking 31027 objects as of 19-Jul-2025
HD Live streaming from Space Station
objects crossing your sky now

SL-12 DEB

Track SL-12 DEB now!
10-day predictions


NORAD ID: 29328
Int'l Code: 1989-039AK
Perigee: 772.0 km
Apogee: 18,480.3 km
Inclination: 65.3 °
Period: 335.6 minutes
Semi major axis: 15997 km
RCS: 0.0222 m2 (small)
Launch date: May 31, 1989
Source: Commonwealth of Independent States (former USSR) (CIS)
Launch site: TYURATAM MISSILE AND SPACE COMPLEX (TTMTR)

Note: This is SATELLITE DEBRIS
Your satellite tracking list
OBJECT A
Track 1 satellite(s)




NASA's NSSDC Master Catalog

Two Line Element Set (TLE):
1 29328U 89039AK  25195.68097666 -.00000288  00000-0 -30827-2 0  9995
2 29328  65.2768 310.9987 5534845 114.3931   0.8808  4.29081779296472
Source of the keplerian elements: AFSPC